Regional Weather Roundup
Issued by NWS Midland/Odessa, TX

Skip options and go directly to product.
Home | Oldest Version | Next Version | Current Version | All | Text Only | Save Text | Print | Product List | Glossary On

Skip product version selection by date and time.   
800
ASUS44 KMAF 240701
RWRMAF
MIDLAND AREA WEATHER ROUNDUP
NATIONAL WEATHER SERVICE MIDLAND TX
200 AM CDT WED AUG 24 2016

...IN SOUTHWEST TEXAS AND SOUTHEAST NEW MEXICO...

CITY           SKY/WX    TMP DP  RH WIND       PRES   REMARKS
ALPINE         PTCLDY    68  64  86 CALM      30.25S
ANDREWS        NOT AVBL
ARTESIA        PTCLDY    64  64 100 S12       30.15S
BIG SPRING     CLOUDY    77  66  68 S7        30.15S
CARLSBAD       LGT RAIN  65  61  87 SE9       30.13F
DRYDEN           N/A     80  63  55 SE13      30.07S
FORT STOCKTON  PTCLDY    75  64  68 S8        30.11S
GUAD PASS      HVY RAIN  61  61 100 NW16G28   30.30R VSB 1/2
HOBBS          TSTM      63  63 100 NW8       30.23F
MARFA          PTCLDY   N/A N/A N/A SE5       30.24S
MIDLAND AIRPK  CLOUDY    78  62  58 S8        30.13F
MIDLAND INTL   MOCLDY    76  64  66 S10       30.12F
ODESSA         CLOUDY    74  66  76 S7        30.14S
PECOS          MOCLDY    71  66  84 E10       30.07F
PRESIDIO       NOT AVBL
SEMINOLE       LGT RAIN  67  63  87 W12G17    30.21R
SNYDER           N/A     76  64  65 SE6       30.14R
WINK           LGT RAIN  69  67  93 N10       30.13R
$$
...OTHER STATIONS IN TEXAS...

CITY           SKY/WX    TMP DP  RH WIND       PRES   REMARKS
ABILENE        CLOUDY    76  67  73 S10       30.11S
AMARILLO       CLOUDY    74  61  63 S18       30.11R
AUSTIN         PTCLDY    73  71  93 CALM      30.14S
BROWNSVILLE    CLEAR     80  76  87 SE7       30.11S
CORPUS CHRISTI PTCLDY    80  78  94 SE7       30.11S
DALLAS FTW     PTCLDY    81  71  71 S13       30.08F
DEL RIO        CLEAR     78  71  79 SE10      30.06S
EL PASO        CLOUDY    69  63  81 CALM      30.14R
HOUSTON INT    PTCLDY    78  76  93 S3        30.14S
LUBBOCK        LGT RAIN  74  64  71 SW20G25   30.15R
SAN ANGELO     CLEAR     77  67  71 S10       30.11S
SAN ANTONIO    PTCLDY    77  73  87 SE10      30.14F
WACO           CLEAR     78  74  87 S14       30.12R
WICHITA FALLS  NOT AVBL
$$
...OTHER LOCATIONS IN NEW MEXICO...

CITY           SKY/WX    TMP DP  RH WIND       PRES   REMARKS
ALAMAGORDO     PTCLDY    72  61  68 S10       30.15R
ALBUQUERQUE    PTCLDY    65  50  58 N6        30.24S
CANNON AFB     CLOUDY    71  58  62 W13       30.15R
CLOVIS         CLOUDY    70  54  56 W7        30.13F
HOLLOMAN AFB   MOCLDY    74  59  61 S17       30.12R
ROSWELL        CLOUDY    66  61  84 S14       30.13R
RUIDOSO          N/A     63  46  55 W9        30.33S
SANTA FE       CLOUDY    59  49  69 CALM      30.25S
TRUTH OR CONSE CLEAR     70  46  42 N8        30.18R
TUCUMCARI      CLOUDY    73  59  61 SW12      30.08R
$$

USA.gov is the U.S. government's official web portal to all federal, state and local government web resources and services.